カタログに戻る

FENGYUN 1C DEB

運用中SSO
NORAD 30152·DEBRIS·🇨🇳 China

打ち上げ May 10, 1999 から Taiyuan Satellite Launch Center

Loading…

次のパス (今後24時間)

TLE

最新Source: Space-Track

元期: Sep 14, 2026, 00:50 UTC

1 30152U 99025TH  26257.03484591  .00002145  00000-0  13696-2 0  9991
2 30152  99.0785 116.7581 0164848  49.4710 312.0679 13.98127415992230

AllMySatでFENGYUN 1C DEBをリアルタイム追跡

Download on the App Store